Total_Precipitation_Accumulation
0.06 0.09 0.16 0.23 0.22 0.17 0.13 0.11 0.15 0.19 0.34 0.56 0.76 0.90 0.98 1.03 1.08 0.99 0.97 1.02 1.04 1.14 1.28 1.38 1.49 1.48 1.47 1.58 1.67 1.88 2.25 2.46 2.65 2.72 2.76 2.88 2.94 2.92 2.95 2.89 2.79 2.98 3.03 3.00
0.08 0.10 0.11 0.15 0.19 0.17 0.14 0.14 0.16 0.20 0.38 0.54 0.80 0.87 0.97 0.98 1.02 1.03 1.12 1.21 1.29 1.33 1.42 1.47 1.56 1.68 1.74 1.78 1.91 2.13 2.57 2.92 3.06 3.12 3.17 3.23 3.29 3.26 3.27 3.20 3.30 3.31 3.14 3.08
0.10 0.13 0.16 0.22 0.20 0.19 0.18 0.17 0.22 0.30 0.45 0.59 0.77 0.97 1.07 0.97 0.87 0.95 1.07 1.17 1.25 1.37 1.51 1.60 1.72 1.81 1.95 2.07 2.18 2.35 2.62 2.84 2.94 3.05 3.15 3.31 3.32 3.33 3.35 3.37 3.34 3.33 3.37 3.32
0.18 0.19 0.29 0.30 0.30 0.30 0.29 0.31 0.37 0.50 0.66 0.76 0.83 0.94 0.98 0.88 0.91 0.99 1.07 1.18 1.27 1.36 1.59 1.77 1.95 2.18 2.47 2.63 2.75 2.75 2.84 2.99 3.08 3.06 3.11 3.18 3.16 3.05 3.08 3.24 3.25 3.18 3.13 3.08
0.30 0.32 0.34 0.36 0.42 0.43 0.47 0.60 0.65 0.81 0.98 1.08 1.07 1.03 1.15 1.06 1.03 1.11 1.25 1.40 1.60 1.80 1.93 2.03 2.12 2.27 2.53 2.82 2.97 2.99 2.87 2.96 3.09 3.19 3.29 3.21 3.13 3.13 3.16 3.22 3.13 3.07 3.05 3.08
0.44 0.50 0.56 0.53 0.54 0.54 0.62 1.07 0.95 1.03 1.20 1.34 1.43 1.76 1.76 1.45 1.47 1.42 1.40 1.54 1.73 1.93 2.04 2.06 2.17 2.24 2.36 2.57 2.68 2.76 2.81 2.93 3.06 3.17 3.35 3.46 3.42 3.45 3.40 3.32 3.25 3.25 3.20 3.20
0.55 0.64 0.68 0.60 0.56 0.65 1.19 1.66 1.38 1.32 1.41 1.53 1.72 1.80 1.72 1.58 1.63 1.64 1.49 1.48 1.53 1.60 1.75 1.84 1.91 2.03 2.22 2.33 2.31 2.42 2.53 2.58 2.76 3.01 3.25 3.42 3.53 3.53 3.54 3.47 3.37 3.17 3.02 2.98
0.83 1.05 1.17 0.78 0.70 1.10 1.52 1.50 1.62 1.54 1.57 1.68 1.73 1.80 1.83 1.84 1.78 1.67 1.58 1.47 1.47 1.55 1.66 1.76 1.91 2.20 2.43 2.43 2.38 2.41 2.52 2.66 2.80 3.04 3.13 3.18 3.33 3.38 3.53 3.50 3.39 3.29 3.06 2.87
1.32 1.48 1.30 0.97 1.04 1.17 1.23 1.46 1.58 1.63 1.69 1.73 1.71 1.73 1.70 1.69 1.66 1.68 1.58 1.56 1.52 1.54 1.66 1.89 2.13 2.41 2.66 2.66 2.69 2.73 2.78 2.88 2.97 3.07 3.17 3.26 3.33 3.33 3.35 3.35 3.20 3.08 2.92 2.79
1.62 1.80 1.56 1.31 1.24 1.29 1.37 1.54 1.71 1.83 1.94 1.90 1.78 1.69 1.77 1.82 1.69 1.72 1.71 1.63 1.60 1.63 1.75 1.94 2.05 2.17 2.41 2.58 2.64 2.80 2.81 2.76 2.77 2.79 2.86 2.95 3.07 3.10 3.06 2.99 2.94 2.85 2.73 2.66
1.99 2.20 2.02 1.79 1.58 1.54 1.59 1.86 2.09 2.08 2.00 1.87 1.85 1.83 1.94 1.95 1.82 1.73 1.71 1.71 1.71 1.77 1.89 1.94 1.95 1.99 2.12 2.31 2.47 2.69 2.83 2.84 2.88 2.89 2.95 3.01 3.08 3.15 3.04 2.87 2.83 2.72 2.59 2.63
2.35 2.25 2.32 2.18 1.79 1.73 1.79 2.00 2.18 2.14 2.09 2.05 2.04 1.96 1.84 1.78 1.73 1.71 1.71 1.76 1.84 1.92 1.95 1.96 1.95 2.03 2.16 2.35 2.59 2.86 2.87 2.80 2.84 2.93 3.02 3.12 3.18 3.19 3.24 2.93 2.83 2.67 2.58 2.53
1.96 2.03 2.10 2.01 1.91 1.95 2.03 2.12 2.23 2.22 2.10 2.10 2.13 2.02 1.83 1.69 1.64 1.65 1.71 1.74 1.86 1.97 1.95 1.92 1.88 2.04 2.23 2.42 2.64 2.88 2.89 2.88 2.88 2.84 2.90 2.96 2.93 2.85 2.88 2.81 2.63 2.55 2.45 2.34
2.02 2.12 2.27 2.25 2.22 2.17 2.34 2.42 2.42 2.36 2.28 2.20 2.14 2.00 1.86 1.89 1.87 1.80 1.82 1.87 1.83 1.79 1.75 1.82 1.86 1.87 2.00 2.21 2.52 2.79 2.84 2.91 2.94 2.89 2.80 2.79 2.73 2.66 2.60 2.57 2.43 2.28 2.21 2.17
2.12 2.10 2.25 2.19 2.24 2.26 2.40 2.57 2.63 2.61 2.51 2.34 2.14 1.99 1.80 1.84 2.04 2.07 2.07 2.12 1.99 1.84 1.80 1.80 1.77 1.71 1.74 1.87 2.08 2.42 2.59 2.54 2.51 2.51 2.48 2.48 2.41 2.32 2.24 2.18 2.22 2.26 2.15 2.06
2.00 2.07 2.07 2.15 2.17 2.15 2.19 2.31 2.46 2.49 2.44 2.29 2.09 1.99 1.83 1.81 1.88 1.93 2.03 2.08 2.12 2.03 1.88 1.79 1.81 1.77 1.66 1.77 1.92 2.02 2.11 2.25 2.15 2.04 2.06 2.08 2.09 2.10 2.06 2.06 2.15 2.27 2.22 2.02
2.07 2.17 2.14 2.16 2.15 2.10 2.01 2.08 2.20 2.22 2.21 2.17 2.05 1.88 1.77 1.77 1.90 1.95 1.98 1.91 1.82 1.81 1.72 1.65 1.65 1.66 1.62 1.75 1.84 1.78 1.71 1.76 1.81 1.65 1.70 1.86 1.94 1.97 1.99 2.08 2.14 2.14 2.05 1.89
1.86 1.93 1.99 2.02 1.94 1.98 1.99 2.00 2.06 1.98 2.03 1.98 1.87 1.79 1.77 1.91 2.09 2.11 1.95 1.77 1.70 1.69 1.64 1.53 1.40 1.31 1.34 1.41 1.44 1.41 1.34 1.35 1.38 1.38 1.50 1.63 1.69 1.75 1.85 1.91 1.96 1.97 1.86 1.71
1.75 1.66 1.66 1.67 1.58 1.69 1.85 1.86 1.92 1.90 1.94 1.89 1.83 1.86 1.88 1.95 1.99 1.95 1.76 1.72 1.74 1.69 1.57 1.45 1.42 1.19 1.13 1.14 1.21 1.20 1.23 1.30 1.35 1.37 1.47 1.53 1.51 1.55 1.72 1.82 1.85 1.84 1.76 1.68
1.66 1.53 1.47 1.50 1.45 1.49 1.61 1.61 1.60 1.64 1.66 1.72 1.89 1.94 1.86 1.81 1.73 1.70 1.67 1.68 1.63 1.50 1.39 1.33 1.24 1.21 1.22 1.21 1.25 1.19 1.22 1.26 1.30 1.27 1.28 1.34 1.40 1.45 1.52 1.56 1.60 1.63 1.62 1.57
1.48 1.39 1.36 1.45 1.50 1.42 1.44 1.43 1.45 1.47 1.51 1.60 1.77 1.84 1.78 1.71 1.62 1.68 1.80 1.77 1.58 1.36 1.29 1.34 1.24 1.20 1.19 1.24 1.21 1.14 1.18 1.24 1.28 1.38 1.43 1.45 1.46 1.47 1.48 1.44 1.44 1.47 1.49 1.54
1.54 1.40 1.30 1.29 1.39 1.42 1.33 1.27 1.26 1.26 1.32 1.41 1.42 1.52 1.69 1.80 1.71 1.71 1.74 1.75 1.59 1.57 1.32 1.23 1.19 1.22 1.26 1.23 1.17 1.25 1.30 1.38 1.47 1.55 1.59 1.61 1.65 1.64 1.59 1.54 1.53 1.49 1.54 1.59
1.63 1.53 1.47 1.44 1.46 1.52 1.37 1.26 1.19 1.21 1.29 1.32 1.30 1.39 1.57 1.71 1.72 1.72 1.64 1.48 1.36 1.49 1.35 1.25 1.31 1.30 1.27 1.19 1.28 1.41 1.43 1.46 1.52 1.57 1.63 1.67 1.73 1.74 1.72 1.69 1.72 1.70 1.71 1.77
1.74 1.56 1.48 1.41 1.36 1.42 1.42 1.30 1.21 1.19 1.20 1.23 1.25 1.33 1.48 1.57 1.56 1.45 1.37 1.34 1.28 1.28 1.20 1.29 1.34 1.31 1.26 1.21 1.35 1.44 1.46 1.52 1.56 1.58 1.58 1.63 1.67 1.67 1.72 1.76 1.76 1.74 1.75 1.77
1.84 1.67 1.54 1.44 1.42 1.37 1.35 1.31 1.24 1.13 1.08 1.13 1.10 1.16 1.25 1.37 1.46 1.39 1.30 1.22 1.20 1.16 1.17 1.27 1.30 1.35 1.29 1.29 1.34 1.39 1.45 1.60 1.67 1.63 1.59 1.64 1.66 1.68 1.72 1.73 1.67 1.63 1.65 1.70
1.93 1.82 1.71 1.56 1.39 1.31 1.28 1.29 1.30 1.26 1.21 1.17 1.14 1.16 1.22 1.25 1.27 1.33 1.37 1.29 1.22 1.22 1.22 1.25 1.26 1.29 1.27 1.32 1.40 1.42 1.43 1.54 1.62 1.62 1.60 1.61 1.65 1.67 1.63 1.59 1.54 1.53 1.55 1.55
1.83 1.78 1.73 1.63 1.50 1.34 1.29 1.32 1.36 1.36 1.33 1.36 1.34 1.32 1.38 1.36 1.33 1.35 1.29 1.22 1.17 1.18 1.22 1.25 1.23 1.21 1.16 1.14 1.16 1.20 1.25 1.28 1.34 1.44 1.53 1.56 1.53 1.51 1.45 1.42 1.42 1.40 1.40 1.36